User: anonymous
Location: Caltech
(34.1382°N, 118.1253°W)
Time: 11:04:33
(UTC-07:00)
Language:

Oscar 11 - Orbit

View from above orbital plane
View from above orbital plane
View from above satellite
View from above satellite

Ground track
Ground track

The orbit data is extracted from the following two-line orbital elements,

1 14781U 84021B   14237.25369615  .00000545  00000-0  75770-4 0  5822
2 14781 097.8455 296.0140 0007433 321.6506 038.4178 14.81692773638199
Epoch (UTC): 25 August 2014 06:05:19
Eccentricity: 0.0007433
inclination: 97.8455°
perigee height: 619 km
apogee height: 629 km
right ascension of ascending node: 296.0140°
argument of perigee: 321.6506°
revolutions per day: 14.81692773
mean anomaly at epoch: 38.4178°
orbit number at epoch: 63819

The dashed part of the orbit path shows where the satellite is in the earth's shadow,  

DLR